Weather History for YMML - September, 2013

Change the Weather History Date:

Sunday, September 1, 2013

  Actual Average Record
Temperature  
Mean Temperature 62 °F -  
Max Temperature 70 °F 60 °F 75 °F (2006)
Min Temperature 55 °F 43 °F 35 °F (2005)
Degree Days  
Heating Degree Days 2    
Growing Degree Days 12 (Base 50)    
Moisture  
Dew Point 47 °F    
Average Humidity 54    
Maximum Humidity 72    
Minimum Humidity 33    
Precipitation  
Precipitation 0.00 in 0.06 in - ()
Sea Level Pressure  
Sea Level Pressure 30.20 in    
Wind  
Wind Speed 22 mph ()    
Max Wind Speed 32 mph    
Max Gust Speed 41 mph    
Visibility 10.5 miles    
Events      
Averages and records for this station are not official NWS values.
T = Trace of Precipitation, MM = Missing Value Source: Averaged Metar Reports

Daily Weather History Graph

Daily Weather History Graph

Search for Another Location

Airport or City:

Trip Planner

Search our weather history database for the weather conditions in past years. The results will help you decide how hot, cold, wet, or windy it might be!

Date:

Astronomy

Sep. 01, 2013 Rise Set
Actual Time 6:42 AM AEST 5:59 PM AEST
Civil Twilight 6:16 AM AEST 6:25 PM AEST
Nautical Twilight 5:45 AM AEST 6:56 PM AEST
Astronomical Twilight 5:15 AM AEST 7:26 PM AEST
Moon 3:41 AM AEST (9/1) 2:06 PM AEST (9/1)
Length of Visible Light 12h 09m
Length of Day
11h 16m
Waning Crescent, 18% of the Moon is Illuminated
Sep 1
Waning Crescent
Sep 5
New
Sep 13
First Quarter
Sep 19
Full
Sep 27
Last Quarter

Hourly Weather History & Observations

Time (AEST) Temp. Dew Point Humidity Pressure Visibility Wind Dir Wind Speed Gust Speed Precip Events Conditions
12:00 AM 60 °F 43 °F 42% 30.18 in 19 mi North 17.3 mph - -   Partly Cloudy
12:00 AM 59.0 °F 42.8 °F 55% 30.15 in - North 17.3 mph - N/A   Clear
12:30 AM 59.0 °F 42.8 °F 55% 30.15 in - North 17.3 mph - N/A   Clear
1:00 AM 58 °F 43 °F 47% 30.15 in - North 19.6 mph - -  
1:00 AM 57.2 °F 42.8 °F 59% 30.12 in - North 19.6 mph - N/A   Clear
1:30 AM 57.2 °F 42.8 °F 59% 30.12 in - North 20.7 mph - N/A   Clear
2:00 AM 58 °F 42 °F 45% 30.15 in - North 21.9 mph - -  
2:00 AM 57.2 °F 42.8 °F 59% 30.12 in - North 21.9 mph - N/A   Clear
2:30 AM 59.0 °F 42.8 °F 55% 30.12 in - North 20.7 mph - N/A   Clear
3:00 AM 57 °F 42 °F 47% 30.15 in 19 mi North 23.0 mph - -   Partly Cloudy
3:00 AM 57.2 °F 42.8 °F 59% 30.12 in - North 23.0 mph - N/A   Clear
3:30 AM 55.4 °F 42.8 °F 63% 30.12 in - North 25.3 mph - N/A   Clear
4:00 AM 57.2 °F 42.8 °F 59% 30.12 in - North 27.6 mph - N/A   Clear
4:32 AM 57.2 °F 42.8 °F 59% 30.15 in - North 25.3 mph 41.4 mph N/A   Clear
5:00 AM 57 °F 42 °F 47% 30.19 in - North 23.0 mph - -  
5:00 AM 57.2 °F 42.8 °F 59% 30.18 in - North 23.0 mph - N/A   Clear
5:30 AM 57.2 °F 42.8 °F 59% 30.18 in - North 25.3 mph - N/A   Clear
6:00 AM 57 °F 42 °F 46% 30.22 in 19 mi North 23.0 mph - -   Partly Cloudy
6:00 AM 57.2 °F 41.0 °F 55% 30.21 in - North 23.0 mph - N/A   Clear
6:30 AM 57.2 °F 41.0 °F 55% 30.18 in - North 24.2 mph - N/A   Clear
7:00 AM 57 °F 42 °F 45% 30.22 in - North 24.2 mph - -  
7:00 AM 57.2 °F 41.0 °F 55% 30.21 in - North 24.2 mph - N/A   Clear
7:30 AM 57.2 °F 42.8 °F 59% 30.21 in - North 25.3 mph - N/A   Clear
8:00 AM 59 °F 42 °F 42% 30.24 in - North 24.2 mph - -  
8:00 AM 59.0 °F 42.8 °F 55% 30.21 in - North 24.2 mph - N/A   Clear
8:30 AM 60.8 °F 42.8 °F 52% 30.21 in - North 27.6 mph - N/A   Clear
9:00 AM 63 °F 41 °F 33% 30.25 in 25 mi North 27.6 mph - -   Partly Cloudy
9:00 AM 62.6 °F 41.0 °F 45% 30.24 in - North 27.6 mph - N/A   Clear
9:30 AM 64.4 °F 41.0 °F 42% 30.24 in - North 32.2 mph - N/A   Clear
10:00 AM 65 °F 43 °F 34% 30.25 in - North 28.8 mph - -  
10:00 AM 64.4 °F 42.8 °F 45% 30.24 in - North 28.8 mph - N/A   Clear
10:30 AM 66.2 °F 46.4 °F 49% 30.21 in - North 28.8 mph - N/A   Clear
11:00 AM 67 °F 50 °F 44% 30.22 in - North 26.5 mph - -  
11:00 AM 68.0 °F 50.0 °F 52% 30.21 in - North 26.5 mph - N/A   Clear
11:30 AM 68.0 °F 50.0 °F 52% 30.18 in - North 28.8 mph - N/A   Clear
12:00 PM 68.0 °F 50.0 °F 52% 30.21 in - North 28.8 mph - N/A   Clear
12:30 PM 68.0 °F 51.8 °F 56% 30.21 in - North 26.5 mph - N/A   Clear
1:00 PM 70 °F 50 °F 38% 30.22 in - North 24.2 mph - -  
1:00 PM 69.8 °F 50.0 °F 49% 30.21 in - North 24.2 mph - N/A   Clear
1:30 PM 69.8 °F 50.0 °F 49% 30.18 in - North 25.3 mph - N/A   Clear
2:00 PM 69.8 °F 50.0 °F 49% 30.18 in 6.2 mi North 27.6 mph - N/A   Mostly Cloudy
2:30 PM 69.8 °F 50.0 °F 49% 30.18 in 6.2 mi North 29.9 mph - N/A   Mostly Cloudy
3:00 PM 69.8 °F 50.0 °F 49% 30.15 in 6.2 mi North 31.1 mph - N/A   Mostly Cloudy
3:30 PM 69.8 °F 50.0 °F 49% 30.15 in 6.2 mi North 26.5 mph - N/A   Mostly Cloudy
4:00 PM 69.8 °F 51.8 °F 53% 30.15 in 6.2 mi North 25.3 mph - N/A   Mostly Cloudy
4:30 PM 69.8 °F 50.0 °F 49% 30.18 in 6.2 mi North 24.2 mph - N/A   Mostly Cloudy
5:00 PM 68.0 °F 51.8 °F 56% 30.18 in - North 24.2 mph - N/A   Clear
5:30 PM 66.2 °F 51.8 °F 60% 30.18 in - North 25.3 mph - N/A   Clear
6:00 PM 66 °F 52 °F 51% 30.22 in 25 mi North 24.2 mph - -   Partly Cloudy
6:00 PM 66.2 °F 51.8 °F 60% 30.21 in - North 24.2 mph - N/A   Clear
6:15 PM 64.4 °F 51.8 °F 64% 30.21 in - North 23.0 mph 34.5 mph N/A   Clear
6:30 PM 64.4 °F 51.8 °F 64% 30.21 in - North 21.9 mph - N/A   Clear
7:00 PM 65 °F 52 °F 53% 30.23 in - North 25.3 mph - -  
7:00 PM 64.4 °F 51.8 °F 64% 30.21 in - North 25.3 mph - N/A   Clear
7:30 PM 64.4 °F 51.8 °F 64% 30.21 in - North 25.3 mph - N/A   Clear
8:00 PM 63 °F 51 °F 56% 30.24 in - North 21.9 mph - -  
8:00 PM 62.6 °F 51.8 °F 68% 30.21 in - North 21.9 mph - N/A   Clear
8:30 PM 62.6 °F 51.8 °F 68% 30.24 in - North 23.0 mph - N/A   Clear
9:00 PM 62 °F 52 °F 61% 30.25 in 25 mi North 23.0 mph - -   Partly Cloudy
9:00 PM 62.6 °F 51.8 °F 68% 30.24 in - North 23.0 mph - N/A   Clear
9:30 PM 60.8 °F 51.8 °F 72% 30.24 in - North 23.0 mph - N/A   Clear
9:46 PM 60.8 °F 50.0 °F 68% 30.24 in - North 23.0 mph 36.8 mph N/A   Clear
10:00 PM 61 °F 50 °F 59% 30.27 in - North 21.9 mph - -  
10:00 PM 60.8 °F 50.0 °F 68% 30.24 in - North 21.9 mph - N/A   Clear
10:30 PM 60.8 °F 50.0 °F 68% 30.24 in - North 21.9 mph - N/A   Clear
11:00 PM 62 °F 49 °F 52% 30.27 in - North 23.0 mph - -  
11:00 PM 62.6 °F 48.2 °F 59% 30.24 in - North 23.0 mph - N/A   Clear
11:30 PM 62.6 °F 48.2 °F 59% 30.24 in - North 19.6 mph - N/A   Clear